Find Starlink 32425

NORAD ID: 61216 Int'l Des: 2024-171 Owner: SPXS Country: US Constellation: starlink operational
LEOCIRCULAR

当前视图

正在加载3D地球...

About Starlink 32425

Starlink 32425 (NORAD 61216) is a starlink constellation satellite (v2 mini) launched Sep 20, 2024 by SPXS of US. It operates in LEO, CIRCULAR orbit with a mass of 730.00 kg.

关于 Starlink 32425

正在加载描述...

即将过境

Passes for default location (London). Set your location on the main map for personalized predictions.

高度历史

Loading altitude history...

两行轨道根数

1 61216U 24171S 26170.35849568 -.00000340 00000-0 82145-6 0 9999
2 61216 53.1620 210.2588 0001486 87.9268 272.1904 15.31699382 97930
Epoch: Jun 19, 2026 • Age: 12 hours

当前状态

高度 482.9 km
速度 7.62 km/s
星下点 -35.74°S, 155.99°W
发射日期 Sep 20, 2024
运行时间 1.7 years
类型 internet

技术详情

分类 Payload
质量 730.00 kg
干质量 700.00 kg
总质量 730.00 kg
长度 0.30 m
直径 4.10 m
跨度 29.00 m
形状 Box + pan
制造商 SPXS
平台类型 Starlink V2M
阶段状态 In Orbit
所有者/国家 SPXS/US

Most Searched